﻿Дата;Google;AdRiver;ReadMe.ru;C8 Network
2017-05-28;1;0;0;0
2016-08-24;1;0;0;0
2016-08-22;2;0;0;0
2016-08-04;1;0;0;0
2016-07-06;1;0;0;0
2016-05-11;1;0;0;0
2016-05-02;1;0;0;0
2016-04-10;1;0;0;0
2016-03-16;1;0;0;0
2016-02-26;1;0;0;0
2016-01-28;1;0;0;0
2015-12-20;1;0;0;0
2015-12-18;1;0;0;0
2015-12-01;1;0;0;0
2015-11-22;2;0;0;0
2015-11-20;1;0;0;0
2015-11-19;1;0;0;0
2015-11-10;1;0;0;0
2015-11-09;1;0;0;0
2015-10-06;3;0;0;0
2015-10-05;1;0;0;0
2015-10-03;1;0;0;0
2015-09-24;1;0;0;0
2015-09-19;1;0;0;0
2015-09-14;1;0;0;0
2015-09-08;1;0;0;0
2015-08-19;1;0;0;0
2015-08-16;1;0;0;0
2015-08-04;1;0;0;0
2015-07-20;2;0;0;0
2015-07-19;1;0;0;0
2015-07-17;3;0;0;0
2015-07-16;3;0;0;0
2015-07-15;1;0;0;0
2015-07-14;3;0;0;0
2015-07-12;1;0;0;0
2015-07-10;1;0;0;0
2015-07-05;2;0;0;0
2015-07-04;1;0;0;0
2015-07-03;1;0;0;0
2015-07-01;1;0;0;0
2015-06-30;2;0;0;0
2015-06-29;3;0;0;0
2015-06-28;2;0;0;0
2015-06-27;2;0;0;0
2015-06-25;1;0;0;0
2015-06-23;1;0;0;0
2015-06-22;3;0;0;0
2015-06-21;1;0;0;0
2015-06-20;1;0;0;0
2015-06-19;3;0;0;0
2015-06-17;1;0;0;0
2015-06-16;2;0;0;0
2015-06-15;2;0;0;0
2015-06-14;4;0;0;0
2015-06-12;1;0;0;0
2015-06-11;4;0;0;0
2015-06-10;1;0;0;0
2015-06-09;2;0;0;0
2015-06-04;1;0;0;0
2015-06-03;2;0;0;0
2015-06-02;1;0;0;0
2015-05-30;1;0;0;0
2015-05-29;5;0;0;0
2015-05-28;1;0;0;0
2015-05-27;1;0;0;0
2015-05-26;1;0;0;0
2015-05-07;3;0;0;0
2015-05-06;1;0;0;0
2015-05-04;2;0;0;0
2015-05-03;1;0;0;0
2015-05-01;1;0;0;0
2015-04-30;2;0;0;0
2015-04-20;1;0;0;0
2015-04-17;1;0;0;0
2015-04-16;7;0;0;0
2015-04-15;2;0;0;0
2015-04-14;2;0;0;0
2015-04-13;1;0;0;0
2015-04-12;1;0;0;0
2015-04-11;1;0;0;0
2015-04-10;4;0;0;0
2015-04-09;5;0;0;0
2015-04-08;2;0;0;0
2015-04-07;2;0;0;0
2015-03-17;3;0;0;0
2015-03-16;3;0;0;0
2015-03-15;3;0;0;0
2015-03-14;1;0;0;0
2015-03-13;1;0;0;0
2015-03-12;2;0;0;0
2015-03-11;2;0;0;0
2015-03-10;2;0;0;0
2015-03-09;2;0;0;0
2015-03-08;2;0;0;0
2015-03-07;1;0;0;0
2015-03-06;5;0;0;0
2015-03-05;4;0;0;0
2015-03-04;5;0;0;0
2015-03-03;4;0;0;0
2015-03-02;4;0;0;0
2015-03-01;7;0;0;0
2015-02-28;4;0;0;0
2015-02-27;3;0;0;0
2015-02-26;1;0;0;0
2015-02-25;4;0;0;0
2015-02-24;6;0;0;0
2015-02-23;5;0;0;0
2015-02-22;4;0;0;0
2015-02-21;3;0;0;0
2015-02-20;3;0;0;0
2015-02-19;1;0;0;0
2015-02-18;3;0;0;0
2015-02-17;4;0;0;0
2015-02-16;2;0;0;0
2015-02-15;2;0;0;0
2015-02-14;1;0;0;0
2015-02-13;5;0;0;0
2015-02-12;4;0;0;0
2015-02-11;6;0;0;0
2015-02-10;3;0;0;0
2015-02-09;10;0;0;0
2015-02-08;4;0;0;0
2015-02-07;2;0;0;0
2015-02-06;7;0;0;0
2015-02-05;6;0;0;0
2015-02-04;7;0;0;0
2015-02-03;7;0;0;0
2015-02-02;1;0;0;0
2015-02-01;7;0;0;0
2015-01-31;5;0;0;0
2015-01-30;8;0;0;0
2015-01-29;7;0;0;0
2015-01-28;7;0;0;0
2015-01-27;5;0;0;0
2015-01-26;9;0;0;0
2015-01-25;3;0;0;0
2015-01-24;2;0;0;0
2015-01-23;3;0;0;0
2015-01-22;9;0;0;0
2015-01-21;5;0;0;0
2015-01-20;4;0;0;0
2015-01-19;11;0;0;0
2015-01-18;4;0;0;0
2015-01-17;3;0;0;0
2015-01-16;6;0;0;0
2015-01-15;11;0;0;0
2015-01-14;2;0;0;0
2015-01-13;7;0;0;0
2015-01-12;7;0;0;0
2015-01-11;6;0;0;0
2015-01-10;8;0;0;0
2015-01-09;7;0;0;0
2015-01-08;9;0;0;0
2015-01-07;6;0;0;0
2015-01-06;4;0;0;0
2015-01-05;7;0;0;0
2015-01-04;2;0;0;0
2015-01-03;9;0;0;0
2015-01-02;4;0;0;0
2015-01-01;1;0;0;0
2014-12-31;1;0;0;0
2014-12-30;4;0;0;0
2014-12-29;1;0;0;0
2014-12-28;4;0;0;0
2014-12-27;1;0;0;0
2014-12-26;2;0;0;0
2014-12-25;1;0;0;0
2014-12-08;1;0;0;0
2014-12-04;1;0;0;0
2014-11-23;1;0;0;0
2014-11-21;1;0;0;0
2014-11-04;1;0;0;0
2014-11-03;1;0;0;0
2014-10-27;1;0;0;0
2014-10-20;1;0;0;0
2014-09-14;1;0;0;0
2014-09-07;1;0;0;0
2014-09-06;2;0;0;0
2014-09-05;3;0;0;0
2014-08-19;2;0;0;0
2014-08-18;1;0;0;0
2014-08-17;1;0;0;0
2014-08-13;1;0;0;0
2014-08-08;4;0;0;0
2014-08-07;1;0;0;0
2014-08-05;4;0;0;0
2014-07-31;2;0;0;0
2014-07-30;1;0;0;0
2014-07-21;3;0;0;0
2014-07-20;2;0;0;0
2014-07-18;2;0;0;0
2014-07-14;2;0;0;0
2014-07-13;1;0;0;0
2014-07-12;1;0;0;0
2014-07-11;1;0;0;0
2014-07-10;1;0;0;0
2014-07-09;1;0;0;0
2014-07-08;7;0;0;0
2014-07-07;3;0;0;0
2014-07-04;3;0;0;0
2014-06-30;1;0;0;0
2014-06-28;1;0;0;0
2014-06-27;1;0;0;0
2014-06-25;7;0;0;0
2014-06-24;1;0;0;0
2014-06-23;1;0;0;0
2014-06-22;2;0;0;0
2014-06-21;1;0;0;0
2014-06-18;2;0;0;0
2014-06-15;2;0;0;0
2014-06-14;1;0;0;0
2014-06-11;1;0;0;0
2014-06-10;0;1;0;0
2014-06-09;2;0;0;0
2014-06-08;2;0;0;0
2014-06-07;7;0;0;0
2014-06-06;5;0;0;0
2014-06-04;9;0;0;0
2014-06-03;17;0;0;0
2014-06-02;20;0;0;0
2014-06-01;24;0;0;0
2014-05-31;40;0;0;0
2014-05-30;22;0;0;0
2014-05-29;19;0;0;0
2014-05-28;16;0;0;0
2014-05-27;17;0;0;0
2014-05-23;12;0;0;0
2014-05-22;20;0;0;0
2014-05-21;29;0;0;0
2014-05-20;37;0;0;0
2014-05-19;3;0;0;0
2014-05-18;4;0;0;0
2014-05-17;1;0;0;0
2014-05-16;2;0;0;0
2014-05-15;2;0;0;0
2014-05-14;5;0;0;0
2014-05-13;1;0;0;0
2014-05-12;3;0;0;0
2014-05-11;2;0;0;0
2014-05-10;3;0;0;0
2014-05-09;1;0;0;0
2014-05-08;3;0;0;0
2014-05-07;7;0;0;0
2014-05-06;5;0;0;0
2014-05-05;5;0;0;0
2014-05-04;11;0;0;0
2014-05-03;3;0;0;0
2014-05-02;1;0;0;0
2014-05-01;2;0;0;0
2014-04-30;4;0;0;0
2014-04-29;2;1;0;0
2014-04-28;1;0;0;0
2014-04-26;3;0;0;0
2014-04-25;2;0;0;0
2014-04-22;2;0;0;0
2014-04-21;2;0;0;0
2014-04-20;1;0;0;0
2014-04-19;2;0;0;0
2014-04-18;2;0;0;0
2014-04-16;1;0;0;0
2014-04-15;1;0;0;0
2014-04-13;5;0;0;0
2014-04-12;2;0;0;0
2014-04-11;1;0;0;0
2014-04-10;3;1;0;0
2014-04-09;2;0;0;0
2014-04-08;3;0;0;0
2014-04-07;5;0;0;0
2014-04-06;3;0;0;0
2014-04-05;1;0;0;0
2014-04-04;1;0;0;0
2014-04-03;3;0;0;0
2014-04-01;2;0;0;0
2014-03-29;1;0;0;0
2014-03-28;2;0;0;0
2014-03-26;1;0;0;0
2014-03-25;1;0;0;0
2014-03-24;2;0;0;0
2014-03-23;1;0;0;0
2014-03-20;1;0;0;0
2014-03-18;1;0;0;0
2014-03-17;1;0;0;0
2014-03-16;2;0;0;0
2014-03-15;1;0;0;0
2014-03-12;3;0;0;0
2014-03-10;2;1;0;0
2014-03-09;4;0;0;0
2014-03-08;1;0;0;0
2014-03-07;2;0;0;0
2014-03-06;1;0;0;0
2014-03-05;1;0;0;0
2014-03-03;1;0;0;0
2014-02-20;1;0;0;0
2014-02-18;5;0;0;0
2014-02-17;2;0;0;0
2014-02-16;8;0;0;0
2014-02-15;1;0;0;0
2014-02-13;5;1;0;0
2014-02-12;2;0;0;0
2014-02-09;4;0;0;0
2014-02-08;4;0;0;0
2014-02-07;5;0;0;0
2014-02-05;3;0;0;0
2014-02-03;4;0;0;0
2014-02-02;6;0;0;0
2014-02-01;6;0;0;0
2014-01-31;6;0;0;0
2014-01-30;10;0;0;0
2014-01-29;4;0;0;0
2014-01-28;8;0;0;0
2014-01-27;1;0;0;0
2014-01-26;2;0;0;0
2014-01-25;3;0;0;0
2014-01-24;2;0;0;0
2014-01-23;5;0;0;0
2014-01-22;1;0;0;0
2014-01-21;2;0;0;0
2014-01-20;7;0;0;0
2014-01-19;4;0;0;0
2014-01-18;3;0;0;0
2014-01-17;6;0;0;0
2014-01-16;1;0;0;0
2014-01-15;2;0;0;0
2014-01-14;1;0;0;0
2014-01-12;4;0;0;0
2014-01-11;1;0;0;0
2014-01-10;4;0;0;0
2014-01-09;2;0;0;0
2014-01-08;9;0;0;0
2014-01-07;11;0;0;0
2014-01-06;6;0;0;0
2014-01-05;4;0;0;0
2014-01-04;13;0;0;0
2014-01-03;14;0;0;0
2014-01-02;17;0;0;0
2014-01-01;12;0;0;0
2013-12-31;3;0;0;0
2013-12-30;15;0;0;0
2013-12-29;7;0;0;0
2013-12-28;10;0;0;0
2013-12-27;3;0;0;0
2013-12-08;1;0;0;0
2013-12-07;6;0;0;0
2013-12-06;8;0;0;0
2013-12-05;3;0;0;0
2013-12-04;2;0;0;0
2013-12-03;10;0;0;0
2013-12-02;8;0;0;0
2013-12-01;9;0;0;0
2013-11-30;8;0;0;0
2013-11-29;12;0;0;0
2013-11-28;7;0;0;0
2013-11-27;6;0;0;0
2013-11-25;6;0;0;0
2013-11-24;2;0;0;0
2013-11-22;5;0;0;0
2013-11-21;3;0;0;0
2013-11-20;3;0;0;0
2013-11-19;5;0;0;0
2013-11-18;1;0;0;0
2013-11-17;12;0;0;0
2013-11-16;7;0;1;0
2013-11-15;6;0;0;0
2013-11-14;2;0;0;0
2013-11-13;3;0;0;0
2013-11-12;8;0;0;0
2013-11-11;4;0;0;0
2013-11-10;2;0;0;0
2013-11-09;1;0;0;0
2013-11-08;4;0;0;0
2013-11-07;6;0;0;0
2013-11-06;8;0;0;0
2013-11-05;6;0;0;0
2013-11-04;1;0;0;0
2013-11-03;10;0;0;0
2013-11-02;7;0;0;0
2013-11-01;5;0;0;0
2013-10-31;8;0;0;0
2013-10-30;4;0;0;0
2013-10-29;3;0;0;0
2013-10-28;3;0;0;0
2013-10-23;5;0;0;0
2013-10-22;2;0;0;0
2013-10-21;8;0;0;0
2013-10-20;3;0;0;0
2013-10-19;3;0;0;0
2013-10-18;7;0;0;0
2013-10-17;6;0;0;0
2013-10-16;6;0;0;0
2013-10-15;3;1;0;0
2013-10-14;3;0;0;0
2013-10-13;1;0;0;0
2013-10-12;5;0;0;0
2013-10-11;3;0;0;0
2013-10-10;1;0;0;0
2013-10-09;1;0;0;0
2013-10-08;5;0;0;0
2013-10-05;1;0;0;0
2013-10-04;6;0;0;0
2013-10-03;1;0;0;0
2013-10-02;2;0;0;0
2013-10-01;8;0;0;0
2013-09-30;4;0;0;0
2013-09-29;7;0;0;0
2013-09-28;6;0;0;0
2013-09-27;4;0;0;0
2013-09-25;4;0;0;0
2013-09-24;1;1;0;0
2013-09-22;1;0;0;0
2013-09-21;1;0;0;0
2013-09-20;2;0;0;0
2013-09-19;1;0;0;0
2013-09-17;2;0;0;0
2013-09-16;3;0;0;0
2013-09-14;2;0;0;0
2013-09-13;4;0;0;0
2013-09-11;2;0;0;0
2013-08-19;7;0;0;0
2013-08-18;3;0;0;0
2013-08-17;5;0;0;0
2013-08-16;3;0;0;0
2013-08-15;2;0;0;0
2013-08-14;2;0;0;0
2013-08-13;1;0;0;0
2013-08-12;2;0;0;0
2013-08-11;3;0;0;0
2013-08-10;1;0;0;0
2013-08-09;2;0;0;0
2013-07-22;1;0;0;0
2013-07-20;8;0;0;0
2013-07-19;7;0;0;0
2013-07-18;2;0;0;0
2013-07-17;3;0;0;0
2013-07-16;3;0;0;0
2013-07-15;4;0;0;0
2013-07-14;3;0;0;0
2013-07-13;8;0;0;0
2013-07-12;4;0;0;0
2013-07-11;4;0;0;0
2013-07-10;6;0;0;0
2013-07-09;2;0;0;0
2013-06-26;2;0;0;0
2013-06-25;1;0;0;0
2013-06-24;4;0;0;0
2013-06-23;5;0;0;0
2013-06-22;6;0;0;0
2013-06-21;2;0;0;0
2013-06-20;4;0;0;0
2013-06-19;3;0;0;0
2013-06-18;5;0;0;0
2013-06-17;4;0;0;0
2013-06-16;10;0;0;0
2013-06-15;1;0;0;0
2013-06-14;4;0;0;0
2013-06-13;1;0;0;0
2013-06-12;3;0;0;0
2013-06-11;6;0;0;0
2013-06-07;2;0;0;0
2013-06-06;5;0;0;0
2013-06-05;4;0;0;0
2013-06-04;7;0;0;0
2013-06-03;4;0;0;0
2013-06-02;9;0;0;0
2013-06-01;1;0;0;0
2013-05-31;3;0;0;0
2013-05-30;5;0;0;0
2013-05-29;2;0;0;0
2013-05-28;3;0;0;0
2013-05-27;2;0;0;0
2013-05-26;4;0;0;0
2013-05-25;1;0;0;0
2013-05-24;3;0;0;0
2013-05-23;5;0;0;0
2013-05-22;2;0;0;0
2013-05-20;3;0;0;0
2013-05-19;4;0;0;0
2013-05-18;3;0;0;0
2013-05-17;1;0;0;0
2013-05-16;5;0;0;0
2013-05-15;1;0;0;0
2013-05-14;5;0;0;0
2013-05-13;18;0;0;0
2013-05-03;0;0;0;1
2013-05-02;4;0;0;0
2013-05-01;6;0;0;0
2013-04-30;6;0;0;0
2013-04-29;6;0;0;0
2013-04-28;5;0;0;0
2013-04-27;5;0;0;0
2013-04-26;2;0;0;0
2013-04-25;8;0;0;0
2013-04-24;7;0;0;0
2013-04-23;8;0;0;0
2013-04-22;6;0;0;0
2013-04-21;6;0;0;0
2013-04-20;3;0;0;0
2013-04-19;5;0;0;0
2013-04-18;4;0;0;0
2013-04-17;5;0;0;0
2013-04-16;6;0;0;0
2013-04-15;4;0;0;0
2013-04-14;10;0;0;0
2013-04-13;6;0;0;0
2013-04-12;6;0;0;0
2013-04-11;7;0;0;0
2013-04-10;2;0;0;0
2013-04-09;13;0;0;0
2013-04-08;2;0;0;0
2013-03-23;25;0;0;0
2013-03-22;12;0;0;0
2013-03-21;7;0;0;0
2013-03-20;15;0;0;0
2013-03-19;12;0;0;0
2013-03-18;6;0;0;0
2013-03-17;2;0;0;0
2013-03-16;7;0;0;0
2013-03-15;13;0;0;0
2013-03-14;15;0;0;0
2013-03-13;16;0;0;0
2013-03-12;15;0;0;0
2013-03-11;11;0;0;0
2013-03-10;15;0;0;0
2013-03-09;11;0;0;0
2013-03-08;12;0;0;0
2013-03-07;12;0;0;0
2013-03-06;6;0;0;0
2013-03-05;7;0;0;0
2013-03-04;3;0;0;0
2013-02-28;1;0;0;0
2013-02-27;4;0;0;0
2013-02-26;3;0;0;0
2013-02-25;8;0;0;0
2013-02-24;5;0;0;0
2013-02-23;6;0;0;0
2013-02-22;5;0;0;0
2013-02-21;5;0;0;0
2013-02-20;6;0;0;0
2013-02-19;9;0;0;0
2013-02-18;10;0;0;0
2013-02-17;3;0;0;0
2013-02-16;14;0;0;0
2013-02-15;9;0;0;0
2013-02-14;2;0;0;0
2013-02-13;9;0;0;0
2013-02-12;3;0;0;0
2013-02-11;9;0;0;0
2013-02-09;1;0;0;0
2013-02-08;1;0;0;0
2013-02-06;1;0;0;0
2013-02-04;1;0;0;0
2013-02-03;1;0;0;0
2013-01-30;2;0;0;0
2013-01-28;2;0;0;0
2013-01-27;3;0;0;0
2013-01-26;2;0;0;0
2013-01-25;1;0;0;0
2013-01-24;4;0;0;0
2013-01-23;1;0;0;0
2013-01-22;5;0;0;0
2013-01-21;3;0;0;0
2013-01-20;4;0;0;0
2013-01-19;9;0;0;0
2013-01-18;11;0;0;0
2013-01-17;9;0;0;0
2013-01-16;13;0;0;0
2013-01-15;9;0;0;0
2013-01-14;4;0;0;0
2013-01-13;7;0;0;0
2013-01-12;6;0;0;0
2013-01-11;11;0;0;0
2013-01-10;11;0;0;0
2013-01-09;7;0;0;0
2013-01-08;10;0;0;0
2013-01-07;10;0;0;0
2013-01-06;13;0;0;0
2013-01-05;17;0;0;0
2013-01-04;13;0;0;0
2013-01-03;9;0;0;0
2013-01-02;5;0;0;0
2013-01-01;10;0;0;0
2012-12-31;3;0;0;0
2012-12-30;1;0;0;0
2012-12-29;8;0;0;0
2012-12-28;5;0;0;0
2012-12-27;2;0;0;0
2012-12-26;3;0;0;0
2012-12-25;5;0;0;0
2012-12-24;7;0;0;0
2012-12-23;16;0;0;0
2012-12-21;1;0;0;0
2012-12-20;6;0;0;0
2012-12-18;4;0;0;0
2012-12-12;14;0;0;0
2012-12-11;10;0;0;0
2012-12-10;13;0;0;0
2012-12-09;15;0;0;0
2012-12-08;10;0;0;0
2012-12-07;11;0;0;0
2012-12-06;9;0;0;0
2012-12-05;11;0;0;0
2012-12-04;12;0;0;0
2012-12-03;7;0;0;0
2012-12-02;23;0;0;0
2012-12-01;17;0;0;0
2012-11-30;16;0;0;0
2012-11-29;20;0;0;0
2012-11-28;27;0;0;0
2012-11-27;25;0;0;0
2012-11-26;23;0;0;0
2012-11-21;25;0;0;0
2012-11-20;27;0;0;0
2012-11-19;15;0;0;0
2012-11-18;21;0;0;0
2012-11-17;25;0;0;0
2012-11-16;27;0;0;0
2012-11-15;24;0;0;0
2012-11-14;20;0;0;0
2012-11-13;18;0;0;0
2012-11-12;12;0;0;0
2012-11-11;21;0;0;0
2012-11-10;2;0;0;0
2012-11-01;10;0;0;0
2012-10-31;24;0;0;0
2012-10-30;24;0;0;0
2012-10-29;26;0;0;0
2012-10-28;26;0;0;0
2012-10-27;25;0;0;0
2012-10-26;17;0;0;0
2012-10-25;9;0;0;0
